Location: Caltech
(34.1382°N, 118.1253°W)
Time: 02:42:39
(UTC-07:00)

Oscar 10/S400 - Visible Passes

Search period start: 23 July 2014 00:00
Search period end: 02 August 2014 00:00
Orbit: 4047 x 35400 km, 26.3° (Epoch: 18 July)

Date Brightness Start Highest point End Pass type
(mag) Time Alt. Az. Time Alt. Az. Time Alt. Az.
23 Jul ? 05:03:20 10° W 06:27:55 51° SW 12:33:57 10° SW visible
24 Jul ? 04:16:53 10° W 05:34:45 58° SW 12:53:47 10° SW visible
25 Jul ? 03:31:10 10° W 04:38:15 64° SSW 13:24:15 10° SSW visible
26 Jul ? 02:45:58 10° W 03:40:49 69° SSW 13:01:37 10° S visible
27 Jul ? 02:01:07 10° W 02:45:24 73° SSW 12:18:17 10° S visible
28 Jul ? 01:16:33 10° W 01:52:50 75° S 11:31:25 10° SSE visible
29 Jul ? 00:32:09 10° W 01:02:38 76° S 10:42:18 10° SSE visible
29 Jul ? 23:47:54 10° W 00:14:12 76° S 09:50:41 10° SSE visible
30 Jul ? 23:03:44 10° WSW 23:27:03 74° S 08:55:38 10° SSE visible
31 Jul ? 22:19:38 10° WSW 22:40:51 71° SSE 07:54:49 10° SE visible
01 Aug ? 21:35:33 10° WSW 21:55:22 67° SSE 00:00:00 11° E visible
